Weather in Oleksandropil

Ukraine / Dnipropetrovsk Region     47°51′39″N   34°12′09″E
temp.,
°C
wind,
m/s
gust,
m/s
humid.,
%
clouds,
%
prec.,
mm/h
press.,
hPa
HPBL,
m
24 january, mon
mon2423:00−5n71386100 0.0 1022495
02:00−5n81687100 0.0 1022525
05:00−5nne91689100 0.1 1021685
08:00−5nne81492100 0.8 1022609
11:00−4nne81392100 1.3 1023562
14:00−3nne71192100 1.8 1022624
17:00−3nne61295100 1.0 1023637
20:00−4nne61193100 1.3 1024567
25 january, tue
tue2523:00−5nne6109294 0.3 1024467
02:00−7nne599285 0.4 1024376
05:00−7n5894100 0.6 1023333
08:00−8n589383 1.3 1024333
11:00−6nne4590100 0.4 1023397
14:00−5n4490100 0.8 1022504
17:00−7nnw359678 0.1 102295
20:00−8nnw239674 0.2 102267
26 january, wed
wed2623:00−9n119765 0.1 102116
02:00−12nw229871 0.1 102111
05:00−13nw1199100 0.0 102010
08:00−12sw1198100 0.1 102026
11:00−7ssw2289100 0.0 1020247
14:00−5sw2283100 0.0 1019355
17:00−8sse119392 0.0 102010
20:00−9e119588 0.0 102110
27 january, thu
thu2723:00−11ene119640 0.0 102110
02:00−12nnw119764 0.0 10229
05:00−12n119876 0.0 102110
08:00−11wnw119880 0.1 102220
11:00−6wnw2289100 0.0 1021253
14:00−4w348494 0.0 1020480
17:00−9sw22945 0.0 102010
20:00−9ssw36945 0.0 102071
28 january, fri
fri2823:00−6ssw499599 0.1 1018243
02:00−4ssw5109797 0.4 1017301
05:00−2ssw51297100 0.7 1015437
08:00−1ssw61393100 1.2 1015469
11:00+1sw61396100 0.1 1014630
14:00+1sw61298100 0.2 1013533
17:00+1sw61198100 0.3 1012398
20:00+1wsw51297100 0.3 1013430